Location: Baix
(44.7118°N, 4.7648°E)
Time: 10:15:37
(UTC+00:00)

Vanguard 2 Rocket - Pass Details

Date: 05 December 2020
Orbit: 554 x 3325 km, 32.9° (Epoch: 21 January)

Event Time Altitude Azimuth Distance (km) Brightness Sun altitude
Rises 04:41:08 0° 218° (SW) 6,062 10.8 -24.3°
Reaches altitude 10° 04:45:07 10° 211° (SSW) 5,376 10.6 -23.6°
Maximum altitude 05:00:25 40° 149° (SSE) 4,207 10.5 -21.0°
Drops below altitude 10° 05:17:55 10° 90° (E) 6,141 12.3 -17.9°
Sets 05:22:48 0° 84° (E) 6,976 12.7 -17.1°
